Flag for U.S.A. Weather past 2 weeks in Thousand Oaks, California, U.S.A.

Now
66 °F

Sunny.


Feels Like: 66 °F
Forecast: 50 / 72 °F
Wind: 3 mph from North

Location: Camarillo Airport

Current Time: Apr 19, 2015 at 11:26:02 AM

Latest Report: Apr 19, 2015 at 10:55 AM


Visibility: 9 mi

Pressure: 29.98 "Hg

Humidity: 59%

Dew point: 51 °F

Location of Thousand OaksLocation

Historic Weather in Thousand Oaks — Graph

°F

Thousand Oaks temperature yesterday

Maximum temperature yesterday: 73 °F (at 2:55 PM)
Minimum temperature yesterday: 49 °F (at 5:55 AM)
Average temperature yesterday: 61 °F

Past Weeks' High & Low Weather Summary

 TemperatureHumidityPressure
High82 °F (Apr 16, 12:55 PM)93% (Apr 19, 6:55 AM)30.14 "Hg (Apr 19, 6:55 AM)
Low42 °F (Apr 8, 4:55 AM)6% (Apr 16, 11:55 AM)29.85 "Hg (Apr 5, 6:55 PM)
Average60 °F58%30.00 "Hg
* Reported Apr 4 9:55 AM — Apr 19 9:55 AM, Thousand Oaks, Weather by CustomWeather, © 2015

Note: Actual official high and low records may vary slightly from our data, if they occured in-between our weather recording intervals... More about our weather records

Advertising

Thousand Oaks weather history for previous 24 hours

 ConditionsComfort  
Time TempWeatherWind HumidityBarometerVisibility
9:55 AM
Sun, Apr 19
59 °FScattered clouds.3 mph78%30.00 "Hg7 mi
8:55 AM56 °FLow clouds.No wind84%30.01 "Hg6 mi
7:53 AM53 °FFog.No wind89%30.01 "Hg1 mi
6:55 AM53 °FFog.No wind93%30.00 "Hg2 mi
5:55 AM53 °FFog.5 mph86%29.97 "Hg4 mi
5:04 AM52 °FFog.3 mph86%29.94 "Hg2 mi
4:55 AM52 °FFog.No wind86%29.96 "Hg3 mi
3:55 AM49 °FPassing clouds.No wind84%29.96 "Hg9 mi
2:55 AM50 °FPassing clouds.No wind80%29.97 "Hg9 mi
2:02 AM53 °FPassing clouds.No wind83%29.96 "Hg8 mi
1:55 AM53 °FPassing clouds.3 mph83%29.98 "Hg8 mi
12:55 AM54 °FHaze.No wind83%29.99 "Hg6 mi
11:55 PM
Sat, Apr 18
55 °FClear.No wind83%29.99 "Hg7 mi
10:55 PM56 °FClear.No wind81%29.99 "Hg8 mi
9:55 PM56 °FClear.3 mph84%29.99 "Hg8 mi
8:55 PM56 °FClear.6 mph84%29.98 "Hg9 mi
7:55 PM58 °FSunny.5 mph78%29.96 "Hg9 mi
6:55 PM62 °FSunny.7 mph65%29.96 "Hg10 mi
5:55 PM66 °FSunny.9 mph49%29.96 "Hg10 mi
4:55 PM68 °FSunny.12 mph47%29.96 "Hg10 mi
3:55 PM71 °FSunny.12 mph47%29.97 "Hg10 mi
2:55 PM73 °FSunny.13 mph38%29.98 "Hg10 mi
1:55 PM72 °FSunny.14 mph46%29.99 "Hg10 mi
12:55 PM72 °FSunny.12 mph49%30.01 "Hg10 mi
11:55 AM70 °FSunny.13 mph49%30.03 "Hg10 mi
Weather by CustomWeather, © 2015

See weather overviewHow to use our weather pages